Time,TemperatureF,DewpointF,PressureIn,WindDirection,WindDirectionDegrees,WindSpeedMPH,WindSpeedGustMPH,Humidity,HourlyPrecipIn,Conditions,Clouds,dailyrainin,SoftwareType,DateUTC
2013-02-04 00:05:00,54.6,50.5,30.14,WNW,301,0.0,0.0,86,0.00,,,0.00,Wunderground v.1.15,2013-02-04 05:05:00,
2013-02-04 00:10:00,54.3,50.5,30.13,WNW,301,0.0,0.0,87,0.00,,,0.00,Wunderground v.1.15,2013-02-04 05:10:00,
2013-02-04 00:15:00,54.1,50.3,30.13,WNW,301,0.0,0.0,87,0.00,,,0.00,Wunderground v.1.15,2013-02-04 05:15:00,
2013-02-04 00:20:00,54.2,51.0,30.13,WNW,301,0.0,0.0,89,0.00,,,0.00,Wunderground v.1.15,2013-02-04 05:20:00,
2013-02-04 00:25:00,54.5,51.0,30.13,WNW,301,0.0,0.0,88,0.00,,,0.00,Wunderground v.1.15,2013-02-04 05:25:00,
2013-02-04 00:30:00,54.7,51.2,30.13,WNW,301,0.0,0.0,88,0.00,,,0.00,Wunderground v.1.15,2013-02-04 05:30:00,
2013-02-04 00:40:00,54.2,51.0,30.13,WNW,301,0.0,0.0,89,0.00,,,0.00,Wunderground v.1.15,2013-02-04 05:40:00,
2013-02-04 00:45:00,54.0,51.1,30.12,WNW,302,1.0,3.0,90,0.00,,,0.00,Wunderground v.1.15,2013-02-04 05:45:00,
2013-02-04 00:50:00,53.9,50.7,30.12,NW,307,2.0,3.0,89,0.00,,,0.00,Wunderground v.1.15,2013-02-04 05:50:00,
2013-02-04 01:00:00,53.6,50.1,30.12,NW,310,2.0,2.0,88,0.00,,,0.00,Wunderground v.1.15,2013-02-04 06:00:00,
2013-02-04 01:10:00,53.9,50.4,30.12,NW,311,2.0,2.0,88,0.00,,,0.00,Wunderground v.1.15,2013-02-04 06:10:00,
2013-02-04 01:15:00,54.1,50.6,30.12,NW,313,3.0,3.0,88,0.00,,,0.00,Wunderground v.1.15,2013-02-04 06:15:00,
2013-02-04 01:20:00,54.3,50.8,30.12,NW,315,3.0,3.0,88,0.00,,,0.00,Wunderground v.1.15,2013-02-04 06:20:00,
2013-02-04 01:25:00,54.5,50.7,30.12,NW,315,2.0,7.0,87,0.00,,,0.00,Wunderground v.1.15,2013-02-04 06:25:00,
2013-02-04 01:35:00,54.6,50.5,30.12,NW,316,3.0,7.0,86,0.00,,,0.00,Wunderground v.1.15,2013-02-04 06:35:00,
2013-02-04 01:40:00,54.6,50.5,30.12,NW,317,3.0,3.0,86,0.00,,,0.00,Wunderground v.1.15,2013-02-04 06:40:00,
2013-02-04 01:45:00,54.6,50.5,30.12,NW,317,3.0,7.0,86,0.00,,,0.00,Wunderground v.1.15,2013-02-04 06:45:00,
2013-02-04 01:50:00,54.6,50.5,30.11,NW,317,2.0,2.0,86,0.00,,,0.00,Wunderground v.1.15,2013-02-04 06:50:00,
2013-02-04 01:55:00,54.5,50.4,30.12,NW,317,1.0,4.0,86,0.00,,,0.00,Wunderground v.1.15,2013-02-04 06:55:00,
2013-02-04 02:00:00,54.4,50.6,30.11,NW,317,1.0,6.0,87,0.00,,,0.00,Wunderground v.1.15,2013-02-04 07:00:00,
2013-02-04 02:10:00,54.6,51.1,30.11,NW,318,3.0,6.0,88,0.00,,,0.00,Wunderground v.1.15,2013-02-04 07:10:00,
2013-02-04 02:15:00,54.6,51.4,30.11,NW,319,3.0,6.0,89,0.00,,,0.00,Wunderground v.1.15,2013-02-04 07:15:00,
2013-02-04 02:20:00,54.8,51.6,30.11,NW,319,2.0,2.0,89,0.00,,,0.00,Wunderground v.1.15,2013-02-04 07:20:00,
2013-02-04 02:25:00,54.8,51.6,30.11,NW,319,1.0,6.0,89,0.00,,,0.00,Wunderground v.1.15,2013-02-04 07:25:00,
2013-02-04 02:30:00,54.8,51.6,30.11,NW,319,1.0,1.0,89,0.00,,,0.00,Wunderground v.1.15,2013-02-04 07:30:00,
2013-02-04 02:40:00,54.2,51.3,30.11,NW,319,1.0,6.0,90,0.00,,,0.00,Wunderground v.1.15,2013-02-04 07:40:00,
2013-02-04 02:45:00,54.1,51.2,30.12,NW,319,1.0,6.0,90,0.00,,,0.00,Wunderground v.1.15,2013-02-04 07:45:00,
2013-02-04 02:50:00,54.1,51.5,30.11,NW,319,0.0,6.0,91,0.00,,,0.00,Wunderground v.1.15,2013-02-04 07:50:00,
2013-02-04 02:55:00,54.1,51.5,30.11,NW,319,0.0,6.0,91,0.00,,,0.00,Wunderground v.1.15,2013-02-04 07:55:00,
2013-02-04 03:00:00,54.1,51.5,30.12,NW,319,0.0,0.0,91,0.00,,,0.00,Wunderground v.1.15,2013-02-04 08:00:00,
2013-02-04 03:10:00,54.2,51.6,30.11,NW,319,0.0,0.0,91,0.00,,,0.00,Wunderground v.1.15,2013-02-04 08:10:00,
2013-02-04 03:15:00,54.1,51.5,30.12,NW,319,0.0,0.0,91,0.00,,,0.00,Wunderground v.1.15,2013-02-04 08:15:00,
2013-02-04 03:20:00,54.0,51.4,30.12,NW,319,0.0,0.0,91,0.00,,,0.00,Wunderground v.1.15,2013-02-04 08:20:00,
2013-02-04 03:25:00,53.9,51.3,30.12,NW,319,0.0,0.0,91,0.00,,,0.00,Wunderground v.1.15,2013-02-04 08:25:00,
2013-02-04 03:35:00,53.6,51.0,30.12,NW,319,0.0,0.0,91,0.00,,,0.00,Wunderground v.1.15,2013-02-04 08:35:00,
2013-02-04 03:45:00,53.2,50.6,30.12,NW,319,1.0,1.0,91,0.00,,,0.00,Wunderground v.1.15,2013-02-04 08:45:00,
2013-02-04 03:50:00,53.0,50.4,30.12,NW,319,1.0,1.0,91,0.00,,,0.00,Wunderground v.1.15,2013-02-04 08:50:00,
2013-02-04 04:00:00,52.5,49.9,30.11,NW,325,1.0,1.0,91,0.00,,,0.00,Wunderground v.1.15,2013-02-04 09:00:00,
2013-02-04 04:18:00,51.8,49.5,30.12,NW,322,1.0,1.0,92,0.00,,,0.00,Wunderground v.1.15,2013-02-04 09:18:00,
2013-02-04 04:25:00,51.7,49.5,30.12,NW,321,1.0,3.0,92,0.00,,,0.00,Wunderground v.1.15,2013-02-04 09:25:00,
2013-02-04 04:35:00,51.4,49.2,30.12,NW,321,0.0,3.0,92,0.00,,,0.00,Wunderground v.1.15,2013-02-04 09:35:00,
2013-02-04 04:40:00,51.3,49.1,30.12,NW,321,0.0,3.0,92,0.00,,,0.00,Wunderground v.1.15,2013-02-04 09:40:00,
2013-02-04 04:45:00,51.1,48.9,30.12,NW,321,0.0,3.0,92,0.00,,,0.00,Wunderground v.1.15,2013-02-04 09:45:00,
2013-02-04 04:50:00,50.9,48.7,30.12,NW,321,0.0,3.0,92,0.00,,,0.00,Wunderground v.1.15,2013-02-04 09:50:00,
2013-02-04 04:55:00,50.6,48.1,30.13,NW,322,0.0,3.0,91,0.00,,,0.00,Wunderground v.1.15,2013-02-04 09:55:00,
2013-02-04 05:00:00,50.6,48.1,30.13,NW,322,0.0,0.0,91,0.00,,,0.00,Wunderground v.1.15,2013-02-04 10:00:00,
2013-02-04 05:10:00,50.2,47.4,30.13,NW,321,0.0,0.0,90,0.00,,,0.00,Wunderground v.1.15,2013-02-04 10:10:00,
2013-02-04 05:15:00,49.9,47.1,30.12,NW,321,0.0,0.0,90,0.00,,,0.00,Wunderground v.1.15,2013-02-04 10:15:00,
2013-02-04 05:20:00,49.7,46.9,30.12,NW,321,0.0,0.0,90,0.00,,,0.00,Wunderground v.1.15,2013-02-04 10:20:00,
2013-02-04 05:25:00,49.4,46.6,30.13,NW,321,0.0,0.0,90,0.00,,,0.00,Wunderground v.1.15,2013-02-04 10:25:00,
2013-02-04 05:30:00,49.2,46.4,30.13,NW,322,0.0,0.0,90,0.00,,,0.00,Wunderground v.1.15,2013-02-04 10:30:00,
2013-02-04 05:40:00,49.1,46.3,30.13,NW,322,0.0,0.0,90,0.00,,,0.00,Wunderground v.1.15,2013-02-04 10:40:00,
2013-02-04 05:45:00,49.0,46.2,30.14,NW,322,0.0,0.0,90,0.00,,,0.00,Wunderground v.1.15,2013-02-04 10:45:00,
2013-02-04 05:50:00,48.7,45.9,30.14,NW,322,0.0,0.0,90,0.00,,,0.00,Wunderground v.1.15,2013-02-04 10:50:00,
2013-02-04 05:55:00,48.4,45.9,30.14,NW,323,0.0,0.0,91,0.00,,,0.00,Wunderground v.1.15,2013-02-04 10:55:00,
2013-02-04 06:00:00,48.3,45.8,30.14,NW,323,0.0,0.0,91,0.00,,,0.00,Wunderground v.1.15,2013-02-04 11:00:00,
2013-02-04 06:10:00,47.8,45.6,30.14,NW,323,0.0,0.0,92,0.00,,,0.00,Wunderground v.1.15,2013-02-04 11:10:00,
2013-02-04 06:15:00,47.7,45.5,30.14,NW,323,0.0,0.0,92,0.00,,,0.00,Wunderground v.1.15,2013-02-04 11:15:00,
2013-02-04 06:20:00,47.6,45.4,30.14,NW,323,0.0,0.0,92,0.00,,,0.00,Wunderground v.1.15,2013-02-04 11:20:00,
2013-02-04 06:25:00,47.6,45.4,30.14,NW,323,0.0,0.0,92,0.00,,,0.00,Wunderground v.1.15,2013-02-04 11:25:00,
2013-02-04 06:30:00,47.6,45.4,30.15,NW,323,0.0,0.0,92,0.00,,,0.00,Wunderground v.1.15,2013-02-04 11:30:00,
2013-02-04 06:35:00,47.4,44.9,30.15,NW,323,0.0,0.0,91,0.00,,,0.00,Wunderground v.1.15,2013-02-04 11:35:00,
2013-02-04 06:45:00,46.6,44.1,30.15,NW,323,0.0,0.0,91,0.00,,,0.00,Wunderground v.1.15,2013-02-04 11:45:00,
2013-02-04 06:50:00,46.5,44.3,30.14,NW,323,0.0,0.0,92,0.00,,,0.00,Wunderground v.1.15,2013-02-04 11:50:00,
2013-02-04 06:55:00,46.5,44.6,30.15,NW,323,0.0,0.0,93,0.00,,,0.00,Wunderground v.1.15,2013-02-04 11:55:00,
2013-02-04 07:00:00,46.4,44.5,30.15,NW,323,0.0,0.0,93,0.00,,,0.00,Wunderground v.1.15,2013-02-04 12:00:00,
2013-02-04 07:10:00,45.7,43.5,30.15,NW,323,0.0,0.0,92,0.00,,,0.00,Wunderground v.1.15,2013-02-04 12:10:00,
2013-02-04 07:15:00,45.1,42.9,30.15,NW,323,0.0,0.0,92,0.00,,,0.00,Wunderground v.1.15,2013-02-04 12:15:00,
2013-02-04 07:20:00,45.0,43.4,30.16,NW,323,0.0,0.0,94,0.00,,,0.00,Wunderground v.1.15,2013-02-04 12:20:00,
2013-02-04 07:25:00,45.3,43.7,30.16,NW,323,0.0,0.0,94,0.00,,,0.00,Wunderground v.1.15,2013-02-04 12:25:00,
2013-02-04 07:35:00,45.2,43.6,30.16,NW,323,0.0,0.0,94,0.00,,,0.00,Wunderground v.1.15,2013-02-04 12:35:00,
2013-02-04 07:40:00,45.4,43.8,30.16,NW,323,0.0,0.0,94,0.00,,,0.00,Wunderground v.1.15,2013-02-04 12:40:00,
2013-02-04 07:45:00,45.6,44.3,30.16,NW,323,0.0,0.0,95,0.00,,,0.00,Wunderground v.1.15,2013-02-04 12:45:00,
2013-02-04 07:55:00,45.9,44.3,30.16,NW,323,0.0,0.0,94,0.00,,,0.00,Wunderground v.1.15,2013-02-04 12:55:00,
2013-02-04 08:00:00,46.2,44.6,30.16,NW,323,0.0,0.0,94,0.00,,,0.00,Wunderground v.1.15,2013-02-04 13:00:00,
2013-02-04 08:10:00,46.9,45.3,30.17,NW,323,0.0,0.0,94,0.00,,,0.00,Wunderground v.1.15,2013-02-04 13:10:00,
2013-02-04 08:15:00,47.4,45.5,30.17,NW,323,0.0,0.0,93,0.00,,,0.00,Wunderground v.1.15,2013-02-04 13:15:00,
2013-02-04 08:25:00,48.5,46.3,30.17,NW,323,0.0,0.0,92,0.00,,,0.00,Wunderground v.1.15,2013-02-04 13:25:00,
2013-02-04 08:30:00,49.2,47.0,30.17,NW,323,0.0,0.0,92,0.00,,,0.00,Wunderground v.1.15,2013-02-04 13:30:00,
2013-02-04 08:35:00,50.0,47.2,30.17,NW,323,0.0,0.0,90,0.00,,,0.00,Wunderground v.1.15,2013-02-04 13:35:00,
2013-02-04 08:40:00,50.7,47.6,30.17,NW,323,0.0,0.0,89,0.00,,,0.00,Wunderground v.1.15,2013-02-04 13:40:00,
2013-02-04 08:45:00,51.5,48.1,30.18,NW,323,0.0,0.0,88,0.00,,,0.00,Wunderground v.1.15,2013-02-04 13:45:00,
2013-02-04 08:50:00,51.9,47.8,30.17,NW,323,0.0,0.0,86,0.00,,,0.00,Wunderground v.1.15,2013-02-04 13:50:00,
2013-02-04 09:00:00,52.5,48.1,30.17,NW,323,0.0,0.0,85,0.00,,,0.00,Wunderground v.1.15,2013-02-04 14:00:00,
2013-02-04 09:10:00,54.7,49.3,30.17,NW,323,0.0,0.0,82,0.00,,,0.00,Wunderground v.1.15,2013-02-04 14:10:00,
2013-02-04 09:15:00,55.5,49.1,30.17,NW,323,0.0,0.0,79,0.00,,,0.00,Wunderground v.1.15,2013-02-04 14:15:00,
2013-02-04 09:20:00,56.0,48.5,30.17,NW,323,0.0,2.0,76,0.00,,,0.00,Wunderground v.1.15,2013-02-04 14:20:00,
2013-02-04 09:25:00,56.0,48.5,30.18,NW,323,0.0,2.0,76,0.00,,,0.00,Wunderground v.1.15,2013-02-04 14:25:00,
2013-02-04 09:35:00,56.8,48.2,30.18,NW,323,1.0,1.0,73,0.00,,,0.00,Wunderground v.1.15,2013-02-04 14:35:00,
2013-02-04 09:40:00,57.3,48.0,30.18,NNW,328,0.0,0.0,71,0.00,,,0.00,Wunderground v.1.15,2013-02-04 14:40:00,
2013-02-04 09:45:00,57.7,47.6,30.18,NNW,329,0.0,0.0,69,0.00,,,0.00,Wunderground v.1.15,2013-02-04 14:45:00,
2013-02-04 09:50:00,58.1,46.8,30.18,NNW,329,0.0,0.0,66,0.00,,,0.00,Wunderground v.1.15,2013-02-04 14:50:00,
2013-02-04 09:55:00,58.7,47.8,30.18,NNW,329,0.0,0.0,67,0.00,,,0.00,Wunderground v.1.15,2013-02-04 14:55:00,
2013-02-04 10:00:00,60.0,46.9,30.18,NNW,329,0.0,0.0,62,0.00,,,0.00,Wunderground v.1.15,2013-02-04 15:00:00,
2013-02-04 10:10:00,61.2,45.8,30.18,NW,321,0.0,0.0,57,0.00,,,0.00,Wunderground v.1.15,2013-02-04 15:10:00,
2013-02-04 10:15:00,61.8,46.9,30.18,NW,323,0.0,0.0,58,0.00,,,0.00,Wunderground v.1.15,2013-02-04 15:15:00,
2013-02-04 10:20:00,61.7,45.8,30.18,NW,323,0.0,0.0,56,0.00,,,0.00,Wunderground v.1.15,2013-02-04 15:20:00,
2013-02-04 10:25:00,61.9,45.5,30.17,NW,321,0.0,0.0,55,0.00,,,0.00,Wunderground v.1.15,2013-02-04 15:25:00,
2013-02-04 10:30:00,62.9,46.0,30.17,NW,320,0.0,0.0,54,0.00,,,0.00,Wunderground v.1.15,2013-02-04 15:30:00,
2013-02-04 10:40:00,62.8,43.9,30.17,NW,321,0.0,0.0,50,0.00,,,0.00,Wunderground v.1.15,2013-02-04 15:40:00,
2013-02-04 10:45:00,62.7,45.8,30.17,NW,321,0.0,0.0,54,0.00,,,0.00,Wunderground v.1.15,2013-02-04 15:45:00,
2013-02-04 10:50:00,63.0,43.5,30.17,NW,321,0.0,0.0,49,0.00,,,0.00,Wunderground v.1.15,2013-02-04 15:50:00,
2013-02-04 10:55:00,63.9,43.8,30.17,NW,319,0.0,0.0,48,0.00,,,0.00,Wunderground v.1.15,2013-02-04 15:55:00,
2013-02-04 11:00:00,64.0,41.0,30.16,WNW,290,1.0,1.0,43,0.00,,,0.00,Wunderground v.1.15,2013-02-04 16:00:00,
2013-02-04 11:10:00,65.6,42.5,30.15,WNW,290,0.0,5.0,43,0.00,,,0.00,Wunderground v.1.15,2013-02-04 16:10:00,
2013-02-04 11:15:00,66.0,39.0,30.15,WNW,286,1.0,5.0,37,0.00,,,0.00,Wunderground v.1.15,2013-02-04 16:15:00,
2013-02-04 11:20:00,66.6,36.6,30.15,WNW,286,1.0,1.0,33,0.00,,,0.00,Wunderground v.1.15,2013-02-04 16:20:00,
2013-02-04 11:25:00,67.1,39.2,30.15,WNW,286,0.0,5.0,36,0.00,,,0.00,Wunderground v.1.15,2013-02-04 16:25:00,
2013-02-04 11:30:00,66.7,40.9,30.15,WSW,242,1.0,1.0,39,0.00,,,0.00,Wunderground v.1.15,2013-02-04 16:30:00,
2013-02-04 11:35:00,67.1,41.3,30.14,SSE,167,1.0,8.0,39,0.00,,,0.00,Wunderground v.1.15,2013-02-04 16:35:00,
2013-02-04 11:45:00,67.3,36.4,30.14,SSE,149,2.0,5.0,32,0.00,,,0.00,Wunderground v.1.15,2013-02-04 16:45:00,
2013-02-04 11:50:00,67.9,34.4,30.14,SSE,150,1.0,1.0,29,0.00,,,0.00,Wunderground v.1.15,2013-02-04 16:50:00,
2013-02-04 11:55:00,68.6,29.3,30.14,SSE,150,1.0,5.0,23,0.00,,,0.00,Wunderground v.1.15,2013-02-04 16:55:00,
2013-02-04 12:00:00,68.8,33.4,30.14,SSE,160,0.0,6.0,27,0.00,,,0.00,Wunderground v.1.15,2013-02-04 17:00:00,
2013-02-04 12:10:00,67.8,31.6,30.14,SSE,164,0.0,6.0,26,0.00,,,0.00,Wunderground v.1.15,2013-02-04 17:10:00,
2013-02-04 12:20:00,69.4,33.0,30.13,SSE,164,0.0,6.0,26,0.00,,,0.00,Wunderground v.1.15,2013-02-04 17:20:00,
2013-02-04 12:25:00,69.4,33.9,30.13,SSE,165,0.0,6.0,27,0.00,,,0.00,Wunderground v.1.15,2013-02-04 17:25:00,
2013-02-04 12:30:00,69.2,30.8,30.13,SSE,165,0.0,6.0,24,0.00,,,0.00,Wunderground v.1.15,2013-02-04 17:30:00,
2013-02-04 12:35:00,70.1,32.6,30.13,SSE,165,0.0,6.0,25,0.00,,,0.00,Wunderground v.1.15,2013-02-04 17:35:00,
2013-02-04 12:40:00,70.7,32.1,30.12,SSE,165,0.0,6.0,24,0.00,,,0.00,Wunderground v.1.15,2013-02-04 17:40:00,
2013-02-04 12:50:00,69.8,31.4,30.11,SSE,165,1.0,1.0,24,0.00,,,0.00,Wunderground v.1.15,2013-02-04 17:50:00,
2013-02-04 12:55:00,70.0,31.5,30.11,SSE,168,1.0,7.0,24,0.00,,,0.00,Wunderground v.1.15,2013-02-04 17:55:00,
2013-02-04 13:00:00,69.4,31.0,30.11,South,187,1.0,1.0,24,0.00,,,0.00,Wunderground v.1.15,2013-02-04 18:00:00,
2013-02-04 13:10:00,71.4,29.4,30.10,South,187,0.0,0.0,21,0.00,,,0.00,Wunderground v.1.15,2013-02-04 18:10:00,
2013-02-04 13:15:00,72.4,27.8,30.10,South,187,0.0,0.0,19,0.00,,,0.00,Wunderground v.1.15,2013-02-04 18:15:00,
2013-02-04 13:20:00,73.0,29.5,30.09,South,187,0.0,0.0,20,0.00,,,0.00,Wunderground v.1.15,2013-02-04 18:20:00,
2013-02-04 13:25:00,73.0,27.0,30.09,South,186,1.0,1.0,18,0.00,,,0.00,Wunderground v.1.15,2013-02-04 18:25:00,
2013-02-04 13:30:00,72.8,26.8,30.09,South,188,1.0,1.0,18,0.00,,,0.00,Wunderground v.1.15,2013-02-04 18:30:00,
2013-02-04 13:35:00,73.2,27.1,30.09,South,188,0.0,1.0,18,0.00,,,0.00,Wunderground v.1.15,2013-02-04 18:35:00,
2013-02-04 13:40:00,73.0,28.3,30.08,SW,216,1.0,1.0,19,0.00,,,0.00,Wunderground v.1.15,2013-02-04 18:40:00,
2013-02-04 13:45:00,73.4,27.3,30.08,SW,216,1.0,1.0,18,0.00,,,0.00,Wunderground v.1.15,2013-02-04 18:45:00,
2013-02-04 13:55:00,74.1,30.4,30.07,SW,216,0.0,1.0,20,0.00,,,0.00,Wunderground v.1.15,2013-02-04 18:55:00,
2013-02-04 14:00:00,74.4,29.4,30.07,SW,216,1.0,1.0,19,0.00,,,0.00,Wunderground v.1.15,2013-02-04 19:00:00,
2013-02-04 14:10:00,74.6,30.9,30.07,SW,215,1.0,1.0,20,0.00,,,0.00,Wunderground v.1.15,2013-02-04 19:10:00,
2013-02-04 14:15:00,74.2,31.7,30.07,SW,215,1.0,1.0,21,0.00,,,0.00,Wunderground v.1.15,2013-02-04 19:15:00,
2013-02-04 14:20:00,74.1,32.8,30.06,SW,217,0.0,1.0,22,0.00,,,0.00,Wunderground v.1.15,2013-02-04 19:20:00,
2013-02-04 14:30:00,72.3,32.4,30.06,SW,230,2.0,4.0,23,0.00,,,0.00,Wunderground v.1.15,2013-02-04 19:30:00,
2013-02-04 14:35:00,72.9,32.9,30.06,WSW,245,2.0,4.0,23,0.00,,,0.00,Wunderground v.1.15,2013-02-04 19:35:00,
2013-02-04 14:40:00,74.0,33.8,30.06,WSW,245,2.0,2.0,23,0.00,,,0.00,Wunderground v.1.15,2013-02-04 19:40:00,
2013-02-04 14:45:00,74.9,34.6,30.06,WSW,245,1.0,2.0,23,0.00,,,0.00,Wunderground v.1.15,2013-02-04 19:45:00,
2013-02-04 14:50:00,75.4,33.9,30.05,WSW,245,1.0,1.0,22,0.00,,,0.00,Wunderground v.1.15,2013-02-04 19:50:00,
2013-02-04 14:55:00,75.7,35.3,30.05,WSW,245,1.0,1.0,23,0.00,,,0.00,Wunderground v.1.15,2013-02-04 19:55:00,
2013-02-04 15:00:00,75.0,33.6,30.05,WSW,245,1.0,1.0,22,0.00,,,0.00,Wunderground v.1.15,2013-02-04 20:00:00,
2013-02-04 15:10:00,75.1,35.8,30.05,WSW,245,0.0,5.0,24,0.00,,,0.00,Wunderground v.1.15,2013-02-04 20:10:00,
2013-02-04 15:15:00,75.2,34.8,30.05,WSW,249,0.0,7.0,23,0.00,,,0.00,Wunderground v.1.15,2013-02-04 20:15:00,
2013-02-04 15:25:00,74.0,35.9,30.05,West,261,4.0,9.0,25,0.00,,,0.00,Wunderground v.1.15,2013-02-04 20:25:00,
2013-02-04 15:30:00,73.8,36.8,30.05,West,264,3.0,3.0,26,0.00,,,0.00,Wunderground v.1.15,2013-02-04 20:30:00,
2013-02-04 15:35:00,75.2,37.9,30.05,West,264,1.0,5.0,26,0.00,,,0.00,Wunderground v.1.15,2013-02-04 20:35:00,
2013-02-04 15:45:00,75.8,38.5,30.05,West,264,1.0,5.0,26,0.00,,,0.00,Wunderground v.1.15,2013-02-04 20:45:00,
2013-02-04 15:50:00,75.1,38.8,30.05,West,264,2.0,5.0,27,0.00,,,0.00,Wunderground v.1.15,2013-02-04 20:50:00,
2013-02-04 15:55:00,74.5,39.2,30.05,West,276,5.0,5.0,28,0.00,,,0.00,Wunderground v.1.15,2013-02-04 20:55:00,
2013-02-04 16:00:00,75.5,40.1,30.05,West,275,4.0,4.0,28,0.00,,,0.00,Wunderground v.1.15,2013-02-04 21:00:00,
2013-02-04 16:10:00,76.7,41.1,30.05,West,275,1.0,6.0,28,0.00,,,0.00,Wunderground v.1.15,2013-02-04 21:10:00,
2013-02-04 16:15:00,76.9,41.3,30.05,West,275,0.0,6.0,28,0.00,,,0.00,Wunderground v.1.15,2013-02-04 21:15:00,
2013-02-04 16:20:00,76.4,40.9,30.05,West,275,1.0,6.0,28,0.00,,,0.00,Wunderground v.1.15,2013-02-04 21:20:00,
2013-02-04 16:25:00,75.6,42.0,30.05,West,275,2.0,6.0,30,0.00,,,0.00,Wunderground v.1.15,2013-02-04 21:25:00,
2013-02-04 16:30:00,76.0,41.4,30.04,West,275,1.0,1.0,29,0.00,,,0.00,Wunderground v.1.15,2013-02-04 21:30:00,
2013-02-04 16:35:00,76.5,42.7,30.05,West,275,1.0,4.0,30,0.00,,,0.00,Wunderground v.1.15,2013-02-04 21:35:00,
2013-02-04 16:40:00,76.4,42.7,30.04,West,275,1.0,6.0,30,0.00,,,0.00,Wunderground v.1.15,2013-02-04 21:40:00,
2013-02-04 16:45:00,75.8,43.0,30.04,West,275,2.0,6.0,31,0.00,,,0.00,Wunderground v.1.15,2013-02-04 21:45:00,
2013-02-04 16:50:00,75.0,43.1,30.04,West,275,2.0,2.0,32,0.00,,,0.00,Wunderground v.1.15,2013-02-04 21:50:00,
2013-02-04 16:55:00,74.7,44.5,30.05,West,275,2.0,6.0,34,0.00,,,0.00,Wunderground v.1.15,2013-02-04 21:55:00,
2013-02-04 17:00:00,75.3,45.0,30.05,West,275,1.0,1.0,34,0.00,,,0.00,Wunderground v.1.15,2013-02-04 22:00:00,
2013-02-04 17:10:00,75.8,45.4,30.05,West,275,0.0,2.0,34,0.00,,,0.00,Wunderground v.1.15,2013-02-04 22:10:00,
2013-02-04 17:20:00,75.2,44.9,30.05,West,275,1.0,5.0,34,0.00,,,0.00,Wunderground v.1.15,2013-02-04 22:20:00,
2013-02-04 17:25:00,74.2,44.8,30.05,West,275,2.0,7.0,35,0.00,,,0.00,Wunderground v.1.15,2013-02-04 22:25:00,
2013-02-04 17:30:00,73.3,44.7,30.05,West,276,5.0,6.0,36,0.00,,,0.00,Wunderground v.1.15,2013-02-04 22:30:00,
2013-02-04 17:35:00,72.9,45.1,30.05,West,277,7.0,7.0,37,0.00,,,0.00,Wunderground v.1.15,2013-02-04 22:35:00,
2013-02-04 17:40:00,72.9,46.5,30.05,West,277,5.0,5.0,39,0.00,,,0.00,Wunderground v.1.15,2013-02-04 22:40:00,
2013-02-04 17:50:00,73.1,46.7,30.05,West,277,0.0,2.0,39,0.00,,,0.00,Wunderground v.1.15,2013-02-04 22:50:00,
2013-02-04 17:55:00,72.8,47.1,30.05,West,277,0.0,2.0,40,0.00,,,0.00,Wunderground v.1.15,2013-02-04 22:55:00,
2013-02-04 18:00:00,72.3,47.3,30.05,West,277,0.0,0.0,41,0.00,,,0.00,Wunderground v.1.15,2013-02-04 23:00:00,
2013-02-04 18:10:00,71.3,47.0,30.05,West,277,0.0,0.0,42,0.00,,,0.00,Wunderground v.1.15,2013-02-04 23:10:00,
2013-02-04 18:15:00,70.6,48.2,30.06,West,277,1.0,6.0,45,0.00,,,0.00,Wunderground v.1.15,2013-02-04 23:15:00,
2013-02-04 18:25:00,68.5,45.1,30.07,West,277,5.0,6.0,43,0.00,,,0.00,Wunderground v.1.15,2013-02-04 23:25:00,
2013-02-04 18:30:00,68.1,45.4,30.07,West,277,5.0,6.0,44,0.00,,,0.00,Wunderground v.1.15,2013-02-04 23:30:00,
2013-02-04 18:35:00,67.8,45.1,30.07,West,277,4.0,6.0,44,0.00,,,0.00,Wunderground v.1.15,2013-02-04 23:35:00,
2013-02-04 18:45:00,67.1,45.6,30.07,West,277,2.0,4.0,46,0.00,,,0.00,Wunderground v.1.15,2013-02-04 23:45:00,
2013-02-04 18:55:00,66.1,45.8,30.07,West,277,1.0,4.0,48,0.00,,,0.00,Wunderground v.1.15,2013-02-04 23:55:00,
2013-02-04 19:00:00,65.9,45.6,30.07,West,277,3.0,4.0,48,0.00,,,0.00,Wunderground v.1.15,2013-02-05 00:00:00,
2013-02-04 19:10:00,65.9,45.6,30.07,West,277,3.0,5.0,48,0.00,,,0.00,Wunderground v.1.15,2013-02-05 00:10:00,
2013-02-04 19:15:00,65.8,45.6,30.07,West,277,5.0,5.0,48,0.00,,,0.00,Wunderground v.1.15,2013-02-05 00:15:00,
2013-02-04 19:20:00,65.5,45.8,30.08,West,277,5.0,8.0,49,0.00,,,0.00,Wunderground v.1.15,2013-02-05 00:20:00,
2013-02-04 19:25:00,65.2,45.5,30.08,West,277,6.0,8.0,49,0.00,,,0.00,Wunderground v.1.15,2013-02-05 00:25:00,
2013-02-04 19:35:00,64.6,43.9,30.08,West,279,7.0,9.0,47,0.00,,,0.00,Wunderground v.1.15,2013-02-05 00:35:00,
2013-02-04 19:40:00,64.5,43.8,30.08,West,279,6.0,6.0,47,0.00,,,0.00,Wunderground v.1.15,2013-02-05 00:40:00,
2013-02-04 19:45:00,64.1,44.0,30.08,West,279,5.0,6.0,48,0.00,,,0.00,Wunderground v.1.15,2013-02-05 00:45:00,
2013-02-04 19:50:00,63.8,43.7,30.08,West,279,4.0,7.0,48,0.00,,,0.00,Wunderground v.1.15,2013-02-05 00:50:00,
2013-02-04 19:55:00,63.5,42.9,30.08,West,279,4.0,7.0,47,0.00,,,0.00,Wunderground v.1.15,2013-02-05 00:55:00,
2013-02-04 20:00:00,63.2,41.5,30.08,West,279,6.0,6.0,45,0.00,,,0.00,Wunderground v.1.15,2013-02-05 01:00:00,
2013-02-04 20:10:00,62.8,42.3,30.08,West,279,5.0,5.0,47,0.00,,,0.00,Wunderground v.1.15,2013-02-05 01:10:00,
2013-02-04 20:15:00,62.7,41.6,30.08,West,279,5.0,9.0,46,0.00,,,0.00,Wunderground v.1.15,2013-02-05 01:15:00,
2013-02-04 20:20:00,62.5,42.0,30.08,West,279,4.0,9.0,47,0.00,,,0.00,Wunderground v.1.15,2013-02-05 01:20:00,
2013-02-04 20:25:00,62.2,41.7,30.08,West,279,3.0,9.0,47,0.00,,,0.00,Wunderground v.1.15,2013-02-05 01:25:00,
2013-02-04 20:30:00,62.0,41.5,30.08,West,279,3.0,3.0,47,0.00,,,0.00,Wunderground v.1.15,2013-02-05 01:30:00,
2013-02-04 20:40:00,61.7,42.3,30.09,West,279,0.0,9.0,49,0.00,,,0.00,Wunderground v.1.15,2013-02-05 01:40:00,
2013-02-04 20:45:00,61.6,40.6,30.09,West,279,0.0,9.0,46,0.00,,,0.00,Wunderground v.1.15,2013-02-05 01:45:00,
2013-02-04 20:50:00,61.5,43.7,30.10,West,279,0.0,9.0,52,0.00,,,0.00,Wunderground v.1.15,2013-02-05 01:50:00,
2013-02-04 21:01:00,60.8,41.5,30.10,West,279,0.0,0.0,49,0.00,,,0.00,Wunderground v.1.15,2013-02-05 02:01:00,
2013-02-04 21:10:00,61.2,39.7,30.10,West,279,0.0,0.0,45,0.00,,,0.00,Wunderground v.1.15,2013-02-05 02:10:00,
2013-02-04 21:15:00,61.1,40.1,30.10,West,279,1.0,1.0,46,0.00,,,0.00,Wunderground v.1.15,2013-02-05 02:15:00,
2013-02-04 21:20:00,60.9,40.0,30.10,West,279,1.0,1.0,46,0.00,,,0.00,Wunderground v.1.15,2013-02-05 02:20:00,
2013-02-04 21:25:00,60.7,40.3,30.10,West,279,1.0,1.0,47,0.00,,,0.00,Wunderground v.1.15,2013-02-05 02:25:00,
2013-02-04 21:30:00,60.6,39.7,30.10,West,279,0.0,0.0,46,0.00,,,0.00,Wunderground v.1.15,2013-02-05 02:30:00,
2013-02-04 21:35:00,60.6,39.7,30.09,West,279,0.0,0.0,46,0.00,,,0.00,Wunderground v.1.15,2013-02-05 02:35:00,
2013-02-04 21:40:00,60.6,39.7,30.10,West,279,0.0,0.0,46,0.00,,,0.00,Wunderground v.1.15,2013-02-05 02:40:00,
2013-02-04 21:50:00,60.4,41.1,30.10,West,279,0.0,0.0,49,0.00,,,0.00,Wunderground v.1.15,2013-02-05 02:50:00,
2013-02-04 21:55:00,59.4,43.2,30.11,West,279,0.0,0.0,55,0.00,,,0.00,Wunderground v.1.15,2013-02-05 02:55:00,
2013-02-04 22:00:00,58.1,42.9,30.11,West,279,0.0,0.0,57,0.00,,,0.00,Wunderground v.1.15,2013-02-05 03:00:00,
2013-02-04 22:10:00,57.7,43.5,30.10,West,279,0.0,0.0,59,0.00,,,0.00,Wunderground v.1.15,2013-02-05 03:10:00,
2013-02-04 22:15:00,57.3,44.4,30.10,West,279,0.0,0.0,62,0.00,,,0.00,Wunderground v.1.15,2013-02-05 03:15:00,
2013-02-04 22:20:00,57.2,44.3,30.10,West,279,0.0,0.0,62,0.00,,,0.00,Wunderground v.1.15,2013-02-05 03:20:00,
2013-02-04 22:25:00,57.8,43.1,30.10,West,279,0.0,0.0,58,0.00,,,0.00,Wunderground v.1.15,2013-02-05 03:25:00,
2013-02-04 22:30:00,58.6,42.9,30.10,West,279,0.0,0.0,56,0.00,,,0.00,Wunderground v.1.15,2013-02-05 03:30:00,
2013-02-04 22:35:00,59.0,44.7,30.10,West,279,0.0,0.0,59,0.00,,,0.00,Wunderground v.1.15,2013-02-05 03:35:00,
2013-02-04 22:40:00,58.9,44.1,30.10,West,279,0.0,0.0,58,0.00,,,0.00,Wunderground v.1.15,2013-02-05 03:40:00,
2013-02-04 22:45:00,58.8,44.5,30.10,West,279,0.0,0.0,59,0.00,,,0.00,Wunderground v.1.15,2013-02-05 03:45:00,
2013-02-04 22:55:00,58.2,46.9,30.11,West,279,0.0,0.0,66,0.00,,,0.00,Wunderground v.1.15,2013-02-05 03:55:00,
2013-02-04 23:00:00,57.9,47.8,30.11,West,279,0.0,0.0,69,0.00,,,0.00,Wunderground v.1.15,2013-02-05 04:00:00,
2013-02-04 23:10:00,57.1,46.6,30.10,West,279,0.0,0.0,68,0.00,,,0.00,Wunderground v.1.15,2013-02-05 04:10:00,
2013-02-04 23:15:00,56.6,45.4,30.10,West,279,0.0,0.0,66,0.00,,,0.00,Wunderground v.1.15,2013-02-05 04:15:00,
2013-02-04 23:20:00,56.9,43.6,30.10,West,279,0.0,0.0,61,0.00,,,0.00,Wunderground v.1.15,2013-02-05 04:20:00,
2013-02-04 23:30:00,57.1,44.2,30.10,West,279,0.0,0.0,62,0.00,,,0.00,Wunderground v.1.15,2013-02-05 04:30:00,
2013-02-04 23:35:00,57.0,44.1,30.10,West,279,0.0,0.0,62,0.00,,,0.00,Wunderground v.1.15,2013-02-05 04:35:00,
2013-02-04 23:40:00,56.7,43.8,30.10,West,279,0.0,0.0,62,0.00,,,0.00,Wunderground v.1.15,2013-02-05 04:40:00,
2013-02-04 23:45:00,56.5,44.9,30.10,West,279,0.0,0.0,65,0.00,,,0.00,Wunderground v.1.15,2013-02-05 04:45:00,
2013-02-04 23:50:00,56.1,45.3,30.10,West,279,0.0,0.0,67,0.00,,,0.00,Wunderground v.1.15,2013-02-05 04:50:00,
2013-02-04 23:55:00,55.6,46.3,30.10,West,279,0.0,0.0,71,0.00,,,0.00,Wunderground v.1.15,2013-02-05 04:55:00,